Regional Weather Roundup
Issued by NWS Cleveland, OH

Home | Current Version | Previous Version | Graphics & Text | Print | Product List | Glossary On
Versions: 1 2 3 4 5 6 7 8 9 10 11 12 13 14 15 16 17 18 19 20 21 22 23 24 25 26 27 28 29 30 31 32 33 34 35 36 37 38 39 40 41 42 43 44 45 46 47 48 49 50
000
ASUS41 KCLE 271410
RWRCLE
OHIO REGIONAL WEATHER ROUNDUP
NATIONAL WEATHER SERVICE WILMINGTON, OH
1000 AM EDT THU APR 27 2017

NOTE: "FAIR" INDICATES FEW OR NO CLOUDS BELOW 12,000 FEET WITH NO
SIGNIFICANT WEATHER AND/OR OBSTRUCTIONS TO VISIBILITY.

OHZ001>008-015>018-024>027-034-035-043-044-271500-
   NORTHWEST OHIO

CITY           SKY/WX    TMP DP  RH WIND       PRES   REMARKS
DEFIANCE       PTSUNNY   66  52  60 S21G30    29.50F
FINDLAY        PTSUNNY   71  53  52 S15       29.53F
TOLEDO EXPRESS CLOUDY    68  52  56 S10G20    29.52R
TOLEDO EXEC    PTSUNNY   70  54  56 SW13      29.54R
LIMA           LGT RAIN  67  55  65 SW14G31   29.54F
$$

OHZ009>014-019>023-028>033-038-089-271500-
   NORTHEAST OHIO

CITY           SKY/WX    TMP DP  RH WIND       PRES   REMARKS
CLE-HOPKINS    PTSUNNY   74  55  51 S16       29.59F
CLE-LAKEFRONT  FAIR      74  56  53 S10G22    29.57F
CUY CO. ARPT   PTSUNNY   75  57  53 S16G28    29.61F
LORAIN-ELYRIA  FAIR      72  54  53 S16G24    29.57F
ASHTABULA      FAIR      71  59  65 S10       29.65F
AKRON-CANTON   PTSUNNY   72  56  57 S13       29.64F
WOOSTER        FAIR      72  57  59 S14       29.61F
MANSFIELD      FAIR      73  56  54 S21G32    29.61R
YOUNGSTOWN     CLOUDY    72  56  57 S10       29.67F
$$

OHZ042-051>053-060>062-070>072-077>081-271500-
  SOUTHWEST OHIO

CITY           SKY/WX    TMP DP  RH WIND       PRES   REMARKS
CINC-COVINGTON CLOUDY    61  58  90 SW7       29.62S
CINC-LUNKEN    LGT RAIN  65  59  81 W14       29.62R
HAMILTON       LGT RAIN  61  60  97 SW8       29.63R
DAYTON         CLOUDY    66  55  67 SW15G22   29.58R
WRIGHT-PAT AFB PTSUNNY   71  59  66 S16       29.56F
DAYTON GENERAL CLOUDY    69  57  65 S20G32    29.57S
WILMINGTON     CLOUDY    71  58  63 S25G39    29.58F
$$

OHZ036-037-039>041-045>050-054>059-063>069-073>076-082>088-271500-
  CENTRAL AND SOUTHEAST OHIO

CITY           SKY/WX    TMP DP  RH WIND       PRES   REMARKS
COLUMBUS       CLOUDY    72  56  57 S15       29.61R
OSU AIRPORT    FAIR      71  57  61 S12       29.59F
BOLTON FIELD   MOSUNNY   70  57  64 S16       29.61S
RICKENBACK AFB FAIR      70  56  61 S18G24    29.60F
NEWARK         FAIR      71  56  58 S14       29.63R
MARION         FAIR      72  56  57 S25G35    29.59R
LANCASTER      FAIR      72  57  59 S12       29.62F
ZANESVILLE     FAIR      73  57  57 S14G22    29.66R
NEW PHILLY     FAIR      73  58  59 S10       29.65F
$$




USA.gov is the U.S. government's official web portal to all federal, state and local government web resources and services.